Location: El Abasto
(10.3790°N, 67.5897°W)
Time: 19:52:22
(UTC+00:00)

Cosmos 1626 Rocket - Pass Details

Date: 19 May 2024
Orbit: 600 x 627 km, 82.5° (Epoch: 11 June)

Event Time Altitude Azimuth Distance (km) Brightness Sun altitude
Rises 23:06:59 0° 351° (N) 2,882 7.5 -5.7°
Reaches altitude 10° 23:09:14 10° 348° (NNW) 1,973 6.7 -6.2°
Maximum altitude 23:13:33 64° 267° (W) 681 4.1 -7.2°
Drops below altitude 10° 23:17:50 10° 185° (S) 1,957 6.0 -8.2°
Sets 23:20:03 0° 182° (S) 2,856 6.8 -8.7°
